www.pogodaiklimat.ru

Погода и климат >> Архив погоды >> Индонезия >> Toli-Toli


ПОГОДА в Toli-Toli

  • Прогноз погоды в Toli-Toli
  • Монитор погоды в Toli-Toli
  • Климат города

АРХИВ ПОГОДЫ в Toli-Toli

Время (UTC), дата Ветер
(напр.,м/с)
 
Видим.   Явления Облачность Т
(С)
Тd
(С)
f
(%)
Тe
(С)
Тes
(С)
Комфортность P
(гПа)
Po
(гПа)
Тmin
(С)
Tmax
(С)
R
(мм)
R24
(мм)
S
(см)
00 15.02 З 6 1000 м слабый дождь 10/6 480 м
[Sc As op]
+24.4 +23.4 94 +33 +33 очень
душно
1015.3 1015.1 +23.6 5
03 15.02 ЮВ 1 12 км {дождь} 9/4 540 м
[Sc As op Ci fib]
+28.5 +24.1 77 +40 +48 очень
душно
1013.2 1012.9 4
06 15.02 штиль 0 12 км 10/5 600 м
[Sc As op Ci fib]
+30.7 +24.2 68 +43 +48 опасность
перегрева
1010.5 1010.2
09 15.02 СВ 1 12 км 10/5 600 м
[Sc As op Ci fib]
+29.3 +23.0 69 +39 +40 очень
душно
1009.7 1009.4
12 15.02 В 1 9000 м 6/3 600 м
[Sc As op Ci fib]
+26.0 +23.3 85 +35 +35 очень
душно
1010.5 1010.3 +32.0
15 15.02 ЮВ 1 9000 м 8/3 600 м
[Sc As trans Ci fib]
+24.3 +22.0 87 +31 +31 очень
душно
1011.4 1011.2
18 15.02 В 2 10 км 10/5 600 м
[Sc As op Ci fib]
+23.6 +22.3 92 +31 +31 очень
душно
1010.5 1010.3
21 15.02 В 2 10 км 10/5 600 м
[Sc As op Ci fib]
+23.6 +23.5 99 +32 +32 очень
душно
1011.0 1010.8
00 16.02 В 2 14 км 6/4 600 м
[Sc diur, vesp As op Ci fib]
+27.5 +24.4 83 +39 +41 очень
душно
1012.4 1012.1 +22.9 4
03 16.02 З 4 14 км 6/4 600 м
[Cu med, cong As op Ci fib]
+30.7 +24.4 69 +43 +50 опасность
перегрева
1012.3 1012.0
06 16.02 З 4 12 км в посл. час дождь 9/4 600 м
[Cu med, cong As op Ci fib]
+28.3 +22.8 72 +38 +42 очень
душно
1010.0 1009.8 0.0
09 16.02 штиль 0 12 км 9/4 600 м
[Sc As op Ci fib]
+28.0 +23.4 76 +38 +39 очень
душно
1009.3 1009.0
12 16.02 штиль 0 8000 м 9/4 600 м
[Sc As op Ci fib]
+25.4 +24.3 94 +35 +35 очень
душно
1010.0 1009.7 +31.1
15 16.02 В 1 8000 м 8/4 600 м
[Sc As op Ci fib]
+24.2 +23.2 94 +32 +32 очень
душно
1010.5 1010.2
18 16.02 ЮВ 1 8000 м 4/3 600 м
[Sc As trans Ci fib]
+23.4 +22.7 96 +33 +33 очень
душно
1008.8 1008.5
21 16.02 ЮВ 1 8000 м 4/3 600 м
[Sc As trans Ci fib]
+23.4 +22.0 92 +32 +32 очень
душно
1009.4 1009.2
00 17.02 штиль 0 13 км 9/4 600 м
[Sc As op Ci fib]
+26.4 +23.7 85 +36 +39 очень
душно
1010.8 1010.5 +27.0 0.0
03 17.02 СЗ 4 13 км 6/3 600 м
[Sc As op Ci fib]
+31.4 +23.6 63 +42 +50 опасность
перегрева
1010.5 1010.3
06 17.02 СЗ 4 13 км 6/3 600 м
[Cu med, cong As op Ci fib]
+31.2 +24.6 68 +44 +50 опасность
перегрева
1008.2 1008.0
09 17.02 З 2 13 км 9/4 600 м
[Sc diur, vesp As op Ci fib]
+29.8 +24.9 75 +43 +43 опасность
перегрева
1009.3 1008.1
12 17.02 В 1 9000 м 6/3 600 м
[Sc diur, vesp As op Ci fib]
+26.4 +25.0 92 +38 +38 очень
душно
1009.3 1009.0 +32.4
15 17.02 В 2 9000 м 6/3 600 м
[Sc diur, vesp As trans Ci fib]
+25.2 +23.6 91 +34 +34 очень
душно
1010.4 1010.1
18 17.02 штиль 0 8000 м 6/3 600 м
[Sc As op Ci fib]
+24.1 +23.1 94 +32 +32 очень
душно
1008.7 1008.4
21 17.02 В 1 8000 м 8/4 600 м
[Sc As op Ci fib]
+23.6 +22.5 94 +31 +31 очень
душно
1009.5 1009.2
00 18.02 В 1 13 км 6/3 600 м
[Sc As op Ci fib]
+27.4 +24.8 86 +39 +43 очень
душно
1010.8 1010.5 +24.0
03 18.02 СЗ 3 13 км 5/3 600 м
[Sc As op Ci fib]
+31.4 +24.3 66 +44 +53 опасность
перегрева
1010.3 1010.1
06 18.02 СЗ 5 13 км 10/4 600 м
[Cu med, cong As op Ci fib]
+28.6 +25.1 81 +41 +44 опасность
перегрева
1007.8 1007.5
09 18.02 СЗ 1 12 км 10/4 600 м
[Cu med, cong As op Ci fib]
+28.4 +25.2 83 +41 +42 опасность
перегрева
1008.3 1008.1
12 18.02 В 1 8000 м 6/3 600 м
[Sc As op Ci fib]
+25.0 +23.7 93 +34 +34 очень
душно
1010.0 1009.8 +31.2
15 18.02 ЮВ 1 8000 м 10/4 600 м
[Sc As op Ci fib]
+24.6 +23.6 94 +33 +33 очень
душно
1010.8 1010.5
18 18.02 ЮВ 2 9000 м 6/3 600 м
[Sc diur, vesp As trans Ci fib]
+24.1 +23.6 97 +33 +33 очень
душно
1009.7 1009.5
21 18.02 В 2 9000 м 6/3 600 м
[Sc diur, vesp As trans Ci fib]
+24.0 +23.5 97 +32 +32 очень
душно
1009.5 1009.2
00 19.02 штиль 0 12 км 10/4 600 м
[Sc As op Ci fib]
+26.2 +24.4 90 +37 +39 очень
душно
1010.1 1009.8 +24.0
03 19.02 СЗ 1 13 км 10/4 600 м
[Sc As op Ci fib]
+30.0 +23.6 69 +41 +48 опасность
перегрева
1009.4 1009.2
06 19.02 СЗ 3 12 км 10/4 600 м
[Cu med, cong As op Ci fib]
+30.4 +24.7 72 +43 +47 опасность
перегрева
1008.0 1007.7
09 19.02 В 1 12 км в посл. час гроза 10/4 <50 м
[Cb cap As op Ci fib]
+28.2 +25.6 86 +42 +42 опасность
перегрева
1008.3 1008.1
12 19.02 ЮВ 1 8000 м {гроза} 8/4 600 м
[Sc As op Ci fib]
+25.5 +24.1 92 +35 +35 очень
душно
1009.8 1009.6 +30.4
15 19.02 штиль 0 8000 м 3/3 600 м
[Sc As trans Ci fib]
+24.5 +23.1 92 +33 +33 очень
душно
1010.1 1009.8
18 19.02 штиль 0 8000 м 3/1 600 м
[Sc As trans Ci fib]
+23.7 +22.6 94 +31 +31 очень
душно
1008.5 1008.2
21 19.02 В 1 8000 м 4/3 600 м
[Sc As trans Ci fib]
+23.0 +22.4 96 +31 +31 очень
душно
1008.8 1008.6
00 20.02 штиль 0 13 км 4/3 600 м
[Sc diur, vesp As op Ci fib]
+27.8 +22.8 74 +37 +42 очень
душно
1010.4 1010.2 +23.1
03 20.02 13 км 8/4 600 м
[Sc diur, vesp As op Ci fib]
+31.8 +25.6 70 1009.1 1008.9
06 20.02 С 4 8000 м гроза без осадков 9/5 570 м
[Cb cap As op Ci fib]
+30.6 +25.0 72 +44 +47 опасность
перегрева
1006.9 1006.7
09 20.02 В 1 12 км {гроза, дождь} 9/4 600 м
[Cu med, cong As op Ci fib]
+28.4 +24.3 78 +40 +40 очень
душно
1006.7 1006.5 0.0
12 20.02 штиль 0 8000 м {гроза, дождь} 9/4 600 м
[Sc As op Ci fib]
+25.8 +24.8 94 +37 +37 очень
душно
1008.2 1007.9 +31.8 0.0
15 20.02 В 2 8000 м гроза без осадков 10/5 600 м
[Cb cap As op Ci fib]
+24.7 +23.3 92 +33 +33 очень
душно
1009.2 1008.9
18 20.02 В 2 1000 м гроза, ливневой дождь 10/6 480 м
[Cb cap As op]
+24.6 +23.9 96 +34 +34 очень
душно
1007.9 1007.6 2
21 20.02 штиль 0 3000 м слабый дождь {гроза} 10/6 480 м
[Sc As op]
+24.3 +23.8 97 +33 +33 очень
душно
1008.3 1008.0 6
00 21.02 штиль 0 8000 м в посл. час дождь {гроза} 10/4 600 м
[Sc As op Ci fib]
+24.2 +23.8 98 +33 +35 очень
душно
1009.2 1009.0 +23.2 0.6
03 21.02 СЗ 1 12 км {дождь} 10/4 600 м
[Sc As op Ci fib]
+28.4 +24.9 81 +41 +48 опасность
перегрева
1009.0 1008.8 0.0
06 21.02 штиль 0 12 км {дождь} 10/4 600 м
[Cu med, cong As op Ci fib]
+30.2 +25.1 74 +44 +50 опасность
перегрева
1006.7 1006.5 0.0
09 21.02 З 4 12 км 10/5 600 м
[Sc As op Ci fib]
+29.1 +24.8 78 +42 +42 опасность
перегрева
1006.3 1006.1
12 21.02 В 1 9000 м 9/4 600 м
[Sc diur, vesp As op Ci fib]
+25.8 +24.4 92 +36 +36 очень
душно
1008.1 1007.9 +31.5
15 21.02 ЮВ 1 9000 м 6/3 600 м
[Sc diur, vesp As trans Ci fib]
+24.2 +23.3 95 +32 +32 очень
душно
1009.7 1009.5

 

Местоположение метеостанции Toli-Toli (Индонезия): широта 1.02 долгота 120.80 высота над уровнем моря 2 м.

В архиве по умолчанию представлена погода в Toli-Toli за последнюю неделю. Архивные данные за месяц целиком и за предыдущие месяцы, начиная с января 2011 года, Вы можете получить, выбрав интересующий диапазон дат из раскрывающегося списка и нажав кнопку "Ввод!".

Внимание! Время в таблицах - всемирное. Для получения местного времени необходимо прибавить поправку, которая в Toli-Toli равна 8 ч.

Смотрите также архив погоды в соседних городах и на ближайших метеорологических станциях:

Погода в Palu (Индонезия) (223 км)
Погода в Gorontalo (Индонезия) (257 км)
Погода в Poso (Индонезия) (267 км)
Погода в Luwuk (Индонезия) (307 км)
Погода в Tanjung Redep (Индонезия) (392 км)
Погода в Masamba (Индонезия) (400 км)
Погода в Tanjung Selor (Индонезия) (436 км)
Погода в Majene (Индонезия) (440 км)
Погода в Tarakan (Индонезия) (442 км)
Погода в Samarinda (Индонезия) (445 км)

Пояснения к столбцам:

Ветер - указаны скорость ветра в м/с - средняя за 10 мин, порывы в срок и между сроками (в фигурных скобках) и направление, откуда дует ветер: С - северный, СВ - северо-восточный, В - восточный, ЮВ - юго-восточный, Ю - южный, ЮЗ - юго-западный, З - западный, СЗ - северо-западный.
Видимость - горизонтальная дальность видимости в метрах или километрах. При видимости от 1 до 10 км при отсутствии осадков обычно наблюдается дымка, при ухудшении видимости до 1 км и менее - туман. В сухую погоду видимость может ухудшаться дымом, пылью или мглою.
Явления - указаны атмосферные явления, наблюдавшиеся в срок или в последний час перед сроком; фигурными скобками обозначены явления, наблюдавшиеся между сроками (за 1-3 часа до срока); квадратными скобками обозначены град или гололедные отложения с указанием их диаметра в мм.
Облачность - указаны через наклонную черту общая и нижняя облачность в баллах и высота нижней границы облаков в метрах; квадратными скобками обозначены формы облаков: Ci - перистые, Cs - перисто-слоистые, Cc - перисто-кучевые, Ac - высококучевые, As - высокослоистые, Sc - слоисто-кучевые, Ns - слоисто-дождевые, Cu - кучевые, Cb - кучево-дождевые. Подробнее классификацию облаков см. в Атласе облаков (PDF).
T - Температура воздуха - температура, измеренная на высоте 2 м над землей.
Td - Температура точки росы - температура, при понижении до которой содержащийся в воздухе водяной пар достигнет насыщения.
f - Относительная влажность воздуха - влажноcть воздуха, измеренная на высоте 2 м над землей.
Te - Эффективная температура - температура, которую ощущает одетый по сезону человек в тени. Характеристика душности погоды. При расчете учитывается влияние влажности воздуха и скорости ветра на теплоощущения человека.
Tes - Эффективная температура на солнце - температура, которую ощущает человек, с поправкой на солнечный нагрев. Характеристика знойности погоды. Зависит от высоты солнца над горизонтом, облачности и скорости ветра. Ночью, в пасмурную погоду, а также при ветре 12 м/с и более поправка равна нулю.
P - Атмосферное давление - приведенное к уровню моря атмосферное давление.
Po - Атмосферное давление - измеренное на уровне метеостанции атмосферное давление.
Tmin - Минимальная температура - минимум температуры воздуха на высоте 2 м над землей.
Tmax - Максимальная температура - максимум температуры воздуха на высоте 2 м над землей.
R - Количество осадков - Количество выпавших осадков за период времени, мм. При наведении курсора мыши на число - период времени, за который выпало указанное количество осадков.
R24 - Количество осадков - Количество выпавших осадков за 24 часа, мм.
S - Снежный покров - Высота снежного покрова, см. При наведении курсора мыши на число - состояние снежного покрова и степень покрытия местности в баллах.